User: anonymous   Login
Location: Unspecified
(0.0000°N, 0.0000°E)
Time: 03:26:39
(UTC+00:00)
Language:

SBSS (USA 216) - Orbit

View from above orbital plane
View from above orbital plane
View from above satellite
View from above satellite

Ground track
Ground track

The orbit data is extracted from the following two-line orbital elements,

1 37168U 10048A   17174.09568064 0.00000100  00000-0  12802-4 0    07
2 37168  97.8916  38.8254 0003000 220.8028 139.1970 14.81405627    00
Epoch (UTC): 23 June 2017 02:17:46
Eccentricity: 0.0003000
inclination: 97.8916°
perigee height: 623 km
apogee height: 627 km
right ascension of ascending node: 38.8254°
argument of perigee: 220.8028°
revolutions per day: 14.81405627
mean anomaly at epoch: 139.1970°
orbit number at epoch: 0

The dashed part of the orbit path shows where the satellite is in the earth's shadow,  

DLR